Location: Los Gatos B&B
(42.6926°N, 77.0646°W)
Time: 13:15:38
(UTC-04:00)

SL-16 R/B - Visible Passes

Search period start: 24 June 2017 00:00
Search period end: 04 July 2017 00:00
Orbit: 841 x 849 km, 71.0° (Epoch: 23 June)

Date Brightness Start Highest point End Pass type
(mag) Time Alt. Az. Time Alt. Az. Time Alt. Az.
24 Jun 2.9 22:14:37 10° NW 22:20:06 51° WSW 22:25:09 12° S visible
25 Jun 2.8 22:00:32 10° NNW 22:06:01 52° WSW 22:11:29 10° S visible
26 Jun 2.8 21:46:27 10° NNW 21:51:58 54° WSW 21:57:26 10° S visible
27 Jun 2.8 21:32:22 10° NNW 21:37:54 56° WSW 21:43:23 10° S visible
28 Jun 2.8 21:18:16 10° NNW 21:23:50 58° WSW 21:29:21 10° S visible
